Regional Weather Roundup
Issued by NWS Newport/Morehead, NC

Current Version | Previous Version | Text Only | Print | Product List | Glossary On
Versions: 1 2 3 4 5 6 7 8 9 10 11 12 13 14 15 16 17 18 19 20 21 22 23 24 25 26 27 28 29 30 31 32 33 34 35 36 37 38 39 40 41 42 43 44 45 46 47 48 49 50
000
ASUS42 KMHX 280913
RWRMHX
WEATHER ROUNDUP FOR EASTERN NORTH CAROLINA
NATIONAL WEATHER SERVICE NEWPORT/MOREHEAD CITY NC
400 AM EST TUE FEB 28 2017

NOTE: "FAIR" INDICATES FEW OR NO CLOUDS BELOW 12,000 FEET
WITH NO SIGNIFICANT WEATHER AND/OR OBSTRUCTIONS TO VISIBILITY

NCZ015>017-031-032-045>047-102-103-281000-
NORTH COAST

CITY           SKY/WX    TMP DP  RH WIND       PRES   REMARKS
EDENTON        CLOUDY    53  49  86 CALM      30.34F
ELIZABETH CITY CLOUDY    55  51  86 SE6       30.34F
KITTY HAWK     NOT AVBL
MANTEO         CLOUDY    56  55  94 CALM      30.35S

$$

NCZ045>047-081-094-103-104-281000-
CENTRAL COAST

CITY           SKY/WX    TMP DP  RH WIND       PRES   REMARKS
FRISCO         CLOUDY    65  58  78 W5        30.34S

$$

NCZ095-097-098-100-101-281000-
SOUTHERN COAST

CITY           SKY/WX    TMP DP  RH WIND       PRES   REMARKS
BEAUFORT       CLOUDY    58  55  90 CALM      30.34S
CEDAR ISLAND   NOT AVBL
JACKSONVILLE   HVY RAIN  56  56 100 CALM      30.33S FOG
PINEY ISLAND   CLOUDY   N/A N/A N/A N3        30.35R
WILMINGTON     CLOUDY    57  55  93 NE5       30.30F


$$

NCZ011>013-027>030-043-044-078>080-089-090>093-098-281000-
COASTAL PLAIN

CITY           SKY/WX    TMP DP  RH WIND       PRES   REMARKS
AHOSKIE          N/A     51  47  84 CALM      30.33F
CLINTON        CLOUDY    55  52  88 E3        30.32F
ELIZABETHTOWN  CLOUDY    54  54  99 CALM      30.30F
GOLDSBORO      CLOUDY    53  52  96 E3        30.30F
GREENVILLE     CLOUDY    52  50  93 CALM      30.33F
HAVELOCK       MOCLDY    56  52  86 VRB3      30.34F
KENANSVILLE    LGT RAIN  52  48  87 CALM      30.33F
KINSTON        NOT AVBL
NEW BERN       CLOUDY    52  51  97 CALM      30.34F
RICHLANDS      LGT RAIN  53  52  96 CALM      30.33F FOG
ROCKY MOUNT    CLOUDY    54  49  83 S3        30.30F
WASHINGTON     CLOUDY    51  49  92 CALM      30.33F
WHITEVILLE     MOCLDY    56  53  89 CALM      30.29F

$$

AMZ130-135-150-152-154-156-158-170-250-252-270-ANZ085-086-088-633-658-670-281000-
MARINE OBSERVATIONS

STATION/POSITION TIME  TEMP    WIND        PRES    WAVE   SWELL
                       AIR SEA DIR/SP/G            HT/PER HT/PER
                 (UTC) (F)     (DEG/KT/KT) (MB)    (FT/S) (FT/S)
CHESAPEAKE LIGHT NOT AVBL
64 E VA BEACH    0850   58 51  200/  6/  8 1027.0    4/ 5   3/ 5
DUCK             0842   54 49  180/  3/  4 1026.9
2 E DUCK         0830      51                N/A     3/ 6
OREGON INLET     0842   60 58  210/  1/  2 1027.5
13E OREGON INLT  NOT AVBL
HATTERAS CG      0842   62 63  280/  4/  5 1027.2
DIAMOND BUOY     0850   69 71  200/ 17/ 19 1027.2    4/ 8   2/ 8
CAPE LOOKOUT     0900   63      CALM  /  1 1027.1
BEAUFORT LAB     0842   59 61   30/  1/  2 1026.4
30 SE NEW RVR IN 0808   67     180/  8/ 12 1026.8
30 SE NEW RVR IN 0843      65                N/A     5/ 5
27 SE WRIGHTSVLE 0808   66 62  170/  8/ 10 1025.6
5 SE WRIGHTSVLE  0808   60 58   70/  2/  6 1026.5
225 S CAPE HAT   0850   69 70  130/ 12/ 14 1027.9    4/ 8   3/ 8
41 SE CHARLESTON 0850   71 68  170/ 19/ 23 1023.1    6/ 6   2/13

$$




USA.gov is the U.S. government's official web portal to all federal, state and local government web resources and services.